Time,TemperatureF,DewpointF,PressureIn,WindDirection,WindDirectionDegrees,WindSpeedMPH,WindSpeedGustMPH,Humidity,HourlyPrecipIn,Conditions,Clouds,dailyrainin,SoftwareType,DateUTC
2013-06-28 00:02:00,74.0,67.0,29.75,WNW,298,0.0,-999.0,78,-99.99,,,-99.99,,2013-06-28 04:02:00,
2013-06-28 00:22:00,74.0,67.0,29.74,WNW,290,0.0,-999.0,79,-99.99,,,-99.99,,2013-06-28 04:22:00,
2013-06-28 00:33:00,73.0,67.0,29.74,WNW,290,0.0,-999.0,81,-99.99,,,-99.99,,2013-06-28 04:33:00,
2013-06-28 00:43:00,73.0,67.0,29.74,WNW,291,0.0,-999.0,81,-99.99,,,-99.99,,2013-06-28 04:43:00,
2013-06-28 00:53:00,73.0,67.0,29.74,WNW,291,0.0,-999.0,81,-99.99,,,-99.99,,2013-06-28 04:53:00,
2013-06-28 01:01:00,73.0,67.0,29.73,WNW,292,0.0,-999.0,81,-99.99,,,-99.99,,2013-06-28 05:01:00,
2013-06-28 01:11:00,73.0,67.0,29.73,WNW,292,0.0,-999.0,81,-99.99,,,-99.99,,2013-06-28 05:11:00,
2013-06-28 01:22:00,73.0,67.0,29.74,WNW,290,0.0,-999.0,81,-99.99,,,-99.99,,2013-06-28 05:22:00,
2013-06-28 01:53:00,74.0,67.0,29.73,West,269,0.0,-999.0,79,-99.99,,,-99.99,,2013-06-28 05:53:00,
2013-06-28 02:02:00,74.0,67.0,29.72,NW,325,0.0,-999.0,78,-99.99,,,-99.99,,2013-06-28 06:02:00,
2013-06-28 02:12:00,74.0,67.0,29.72,NW,306,0.0,-999.0,78,-99.99,,,-99.99,,2013-06-28 06:12:00,
2013-06-28 02:22:00,74.0,67.0,29.72,NW,306,0.0,-999.0,78,-99.99,,,-99.99,,2013-06-28 06:22:00,
2013-06-28 03:01:00,71.0,66.0,29.72,NNW,334,0.0,-999.0,83,-99.99,,,-99.99,,2013-06-28 07:01:00,
2013-06-28 03:11:00,72.0,66.0,29.71,NNW,342,0.0,-999.0,82,-99.99,,,-99.99,,2013-06-28 07:11:00,
2013-06-28 03:22:00,72.0,66.0,29.71,NNW,342,0.0,-999.0,82,-99.99,,,-99.99,,2013-06-28 07:22:00,
2013-06-28 03:33:00,72.0,65.0,29.71,NNW,340,0.0,-999.0,80,-99.99,,,-99.99,,2013-06-28 07:33:00,
2013-06-28 03:43:00,73.0,66.0,29.71,NNW,336,0.0,-999.0,80,-99.99,,,-99.99,,2013-06-28 07:43:00,
2013-06-28 03:52:00,73.0,66.0,29.71,NNW,336,0.0,-999.0,80,-99.99,,,-99.99,,2013-06-28 07:52:00,
2013-06-28 04:02:00,73.0,66.0,29.71,NNW,342,0.0,-999.0,78,-99.99,,,-99.99,,2013-06-28 08:02:00,
2013-06-28 04:11:00,73.0,66.0,29.71,NW,315,0.0,-999.0,79,-99.99,,,-99.99,,2013-06-28 08:11:00,
2013-06-28 04:22:00,73.0,66.0,29.71,NW,315,0.0,-999.0,79,-99.99,,,-99.99,,2013-06-28 08:22:00,
2013-06-28 04:33:00,73.0,66.0,29.71,WNW,292,1.0,-999.0,78,-99.99,,,-99.99,,2013-06-28 08:33:00,
2013-06-28 04:43:00,73.0,66.0,29.71,NW,324,0.0,-999.0,78,-99.99,,,-99.99,,2013-06-28 08:43:00,
2013-06-28 04:52:00,73.0,66.0,29.71,NW,324,0.0,-999.0,78,-99.99,,,-99.99,,2013-06-28 08:52:00,
2013-06-28 05:02:00,72.0,65.0,29.70,NW,324,0.0,-999.0,80,-99.99,,,-99.99,,2013-06-28 09:02:00,
2013-06-28 05:22:00,71.0,66.0,29.70,SSW,210,0.0,-999.0,83,-99.99,,,-99.99,,2013-06-28 09:22:00,
2013-06-28 05:33:00,71.0,65.0,29.70,WNW,300,0.0,-999.0,81,-99.99,,,-99.99,,2013-06-28 09:33:00,
2013-06-28 05:52:00,71.0,65.0,29.70,WNW,300,0.0,-999.0,81,-99.99,,,-99.99,,2013-06-28 09:52:00,
2013-06-28 06:12:00,71.0,65.0,29.70,WNW,300,0.0,-999.0,81,-99.99,,,-99.99,,2013-06-28 10:12:00,
2013-06-28 06:22:00,70.0,65.0,29.70,WNW,300,0.0,-999.0,84,-99.99,,,-99.99,,2013-06-28 10:22:00,
2013-06-28 06:42:00,71.0,65.0,29.69,NW,318,0.0,-999.0,82,-99.99,,,-99.99,,2013-06-28 10:42:00,
2013-06-28 06:52:00,71.0,65.0,29.69,NW,318,0.0,-999.0,82,-99.99,,,-99.99,,2013-06-28 10:52:00,
2013-06-28 07:11:00,70.0,64.0,29.69,SSE,159,0.0,-999.0,82,-99.99,,,-99.99,,2013-06-28 11:11:00,
2013-06-28 07:22:00,71.0,65.0,29.68,NE,36,0.0,-999.0,82,-99.99,,,-99.99,,2013-06-28 11:22:00,
2013-06-28 07:43:00,72.0,65.0,29.68,WNW,298,0.0,-999.0,79,-99.99,,,-99.99,,2013-06-28 11:43:00,
2013-06-28 07:53:00,72.0,65.0,29.68,WNW,298,0.0,-999.0,79,-99.99,,,-99.99,,2013-06-28 11:53:00,
2013-06-28 08:34:00,75.0,65.0,29.67,WNW,290,1.0,-999.0,72,-99.99,,,-99.99,,2013-06-28 12:34:00,
2013-06-28 08:43:00,76.0,66.0,29.67,WNW,284,1.0,-999.0,72,-99.99,,,-99.99,,2013-06-28 12:43:00,
2013-06-28 08:52:00,76.0,66.0,29.67,WNW,284,1.0,-999.0,72,-99.99,,,-99.99,,2013-06-28 12:52:00,
2013-06-28 09:01:00,76.0,66.0,29.67,WNW,284,1.0,-999.0,72,-99.99,,,-99.99,,2013-06-28 13:01:00,
2013-06-28 09:11:00,76.0,66.0,29.67,SSE,166,0.0,-999.0,71,-99.99,,,-99.99,,2013-06-28 13:11:00,
2013-06-28 09:23:00,76.0,68.0,29.67,SSE,166,0.0,-999.0,76,-99.99,,,-99.99,,2013-06-28 13:23:00,
2013-06-28 09:43:00,76.0,68.0,29.67,SSE,166,0.0,-999.0,77,-99.99,,,-99.99,,2013-06-28 13:43:00,
2013-06-28 09:53:00,75.0,68.0,29.67,SSE,166,0.0,-999.0,78,-99.99,,,-99.99,,2013-06-28 13:53:00,
2013-06-28 10:02:00,75.0,68.0,29.68,NNW,336,0.0,-999.0,78,-99.99,,,-99.99,,2013-06-28 14:02:00,
2013-06-28 10:33:00,76.0,68.0,29.67,West,279,0.0,-999.0,76,-99.99,,,-99.99,,2013-06-28 14:33:00,
2013-06-28 10:44:00,77.0,67.0,29.67,South,175,0.0,-999.0,72,-99.99,,,-99.99,,2013-06-28 14:44:00,
2013-06-28 10:53:00,77.0,67.0,29.67,South,175,0.0,-999.0,72,-99.99,,,-99.99,,2013-06-28 14:53:00,
2013-06-28 11:02:00,79.0,70.0,29.66,SSE,149,0.0,-999.0,73,-99.99,,,-99.99,,2013-06-28 15:02:00,
2013-06-28 11:24:00,80.0,69.0,29.67,West,259,0.0,-999.0,70,-99.99,,,-99.99,,2013-06-28 15:24:00,
2013-06-28 11:34:00,82.0,68.0,29.67,West,272,0.0,-999.0,63,-99.99,,,-99.99,,2013-06-28 15:34:00,
2013-06-28 11:52:00,83.0,68.0,29.67,WSW,256,2.0,-999.0,60,-99.99,,,-99.99,,2013-06-28 15:52:00,
2013-06-28 12:02:00,84.0,67.0,29.67,WNW,294,1.0,-999.0,57,-99.99,,,-99.99,,2013-06-28 16:02:00,
2013-06-28 12:25:00,85.0,68.0,29.67,SSW,211,1.0,-999.0,57,-99.99,,,-99.99,,2013-06-28 16:25:00,
2013-06-28 12:33:00,85.0,66.0,29.66,SSW,194,1.0,-999.0,54,-99.99,,,-99.99,,2013-06-28 16:33:00,
2013-06-28 12:44:00,85.0,66.0,29.66,West,266,1.0,-999.0,54,-99.99,,,-99.99,,2013-06-28 16:44:00,
2013-06-28 12:53:00,85.0,66.0,29.66,West,266,1.0,-999.0,54,-99.99,,,-99.99,,2013-06-28 16:53:00,
2013-06-28 13:11:00,85.0,68.0,29.66,WSW,244,2.0,-999.0,56,-99.99,,,-99.99,,2013-06-28 17:11:00,
2013-06-28 13:22:00,85.0,69.0,29.66,SW,214,1.0,-999.0,58,-99.99,,,-99.99,,2013-06-28 17:22:00,
2013-06-28 13:44:00,86.0,67.0,29.65,West,277,1.0,-999.0,53,-99.99,,,-99.99,,2013-06-28 17:44:00,
2013-06-28 13:52:00,86.0,67.0,29.65,West,277,1.0,-999.0,53,-99.99,,,-99.99,,2013-06-28 17:52:00,
2013-06-28 14:02:00,86.0,68.0,29.65,SSW,196,1.0,-999.0,55,-99.99,,,-99.99,,2013-06-28 18:02:00,
2013-06-28 14:11:00,86.0,68.0,29.65,SSW,196,1.0,-999.0,55,-99.99,,,-99.99,,2013-06-28 18:11:00,
2013-06-28 14:22:00,87.0,69.0,29.64,NW,307,1.0,-999.0,55,-99.99,,,-99.99,,2013-06-28 18:22:00,
2013-06-28 14:43:00,85.0,69.0,29.64,SSW,213,0.0,-999.0,58,-99.99,,,-99.99,,2013-06-28 18:43:00,
2013-06-28 14:52:00,85.0,69.0,29.63,WNW,292,1.0,-999.0,58,-99.99,,,-99.99,,2013-06-28 18:52:00,
2013-06-28 15:01:00,82.0,68.0,29.64,SSW,207,0.0,-999.0,62,-99.99,,,-99.99,,2013-06-28 19:01:00,
2013-06-28 15:22:00,82.0,68.0,29.64,WNW,285,1.0,-999.0,62,-99.99,,,-99.99,,2013-06-28 19:22:00,
2013-06-28 15:33:00,81.0,68.0,29.65,West,260,1.0,-999.0,65,-99.99,,,-99.99,,2013-06-28 19:33:00,
2013-06-28 15:43:00,77.0,70.0,29.64,WNW,290,0.0,-999.0,78,-99.99,,,-99.99,,2013-06-28 19:43:00,
2013-06-28 15:53:00,77.0,70.0,29.64,WNW,290,0.0,-999.0,78,-99.99,,,-99.99,,2013-06-28 19:53:00,
2013-06-28 16:22:00,78.0,69.0,29.62,WSW,249,0.0,-999.0,74,-99.99,,,-99.99,,2013-06-28 20:22:00,
2013-06-28 16:33:00,80.0,71.0,29.61,WNW,284,0.0,-999.0,74,-99.99,,,-99.99,,2013-06-28 20:33:00,
2013-06-28 16:43:00,80.0,70.0,29.60,WNW,283,0.0,-999.0,71,-99.99,,,-99.99,,2013-06-28 20:43:00,
2013-06-28 16:52:00,80.0,70.0,29.60,WNW,283,0.0,-999.0,71,-99.99,,,-99.99,,2013-06-28 20:52:00,
2013-06-28 17:23:00,79.0,65.0,29.59,NNW,327,1.0,-999.0,63,-99.99,,,-99.99,,2013-06-28 21:23:00,
2013-06-28 17:34:00,78.0,65.0,29.59,SW,214,1.0,-999.0,65,-99.99,,,-99.99,,2013-06-28 21:34:00,
2013-06-28 17:43:00,78.0,65.0,29.59,West,259,0.0,-999.0,65,-99.99,,,-99.99,,2013-06-28 21:43:00,
2013-06-28 17:53:00,78.0,65.0,29.59,West,259,0.0,-999.0,65,-99.99,,,-99.99,,2013-06-28 21:53:00,
2013-06-28 18:22:00,79.0,65.0,29.57,WNW,296,0.0,-999.0,63,-99.99,,,-99.99,,2013-06-28 22:22:00,
2013-06-28 18:34:00,78.0,66.0,29.57,SSW,200,0.0,-999.0,66,-99.99,,,-99.99,,2013-06-28 22:34:00,
2013-06-28 18:52:00,79.0,66.0,29.57,SW,221,0.0,-999.0,65,-99.99,,,-99.99,,2013-06-28 22:52:00,
2013-06-28 19:02:00,80.0,67.0,29.57,SSW,192,0.0,-999.0,64,-99.99,,,-99.99,,2013-06-28 23:02:00,
2013-06-28 19:23:00,79.0,67.0,29.58,SW,223,0.0,-999.0,66,-99.99,,,-99.99,,2013-06-28 23:23:00,
2013-06-28 19:34:00,78.0,65.0,29.58,SSW,201,0.0,-999.0,65,-99.99,,,-99.99,,2013-06-28 23:34:00,
2013-06-28 19:43:00,78.0,66.0,29.58,SW,228,0.0,-999.0,66,-99.99,,,-99.99,,2013-06-28 23:43:00,
2013-06-28 19:53:00,78.0,66.0,29.58,SW,228,0.0,-999.0,66,-99.99,,,-99.99,,2013-06-28 23:53:00,
2013-06-28 20:02:00,78.0,65.0,29.58,West,280,0.0,-999.0,65,-99.99,,,-99.99,,2013-06-29 00:02:00,
2013-06-28 20:10:00,77.0,65.0,29.59,West,266,0.0,-999.0,66,-99.99,,,-99.99,,2013-06-29 00:10:00,
2013-06-28 20:11:00,77.0,65.0,29.58,West,263,0.0,-999.0,67,-99.99,,,-99.99,,2013-06-29 00:11:00,
2013-06-28 20:23:00,77.0,65.0,29.58,West,263,0.0,-999.0,67,-99.99,,,-99.99,,2013-06-29 00:23:00,
2013-06-28 20:33:00,77.0,65.0,29.59,West,266,0.0,-999.0,66,-99.99,,,-99.99,,2013-06-29 00:33:00,
2013-06-28 20:42:00,77.0,65.0,29.59,West,266,0.0,-999.0,66,-99.99,,,-99.99,,2013-06-29 00:42:00,
2013-06-28 20:52:00,77.0,65.0,29.59,West,266,0.0,-999.0,66,-99.99,,,-99.99,,2013-06-29 00:52:00,
2013-06-28 21:01:00,77.0,65.0,29.59,West,266,0.0,-999.0,66,-99.99,,,-99.99,,2013-06-29 01:01:00,
2013-06-28 21:22:00,76.0,64.0,29.59,NW,310,0.0,-999.0,66,-99.99,,,-99.99,,2013-06-29 01:22:00,
2013-06-28 21:32:00,76.0,64.0,29.59,NW,310,0.0,-999.0,66,-99.99,,,-99.99,,2013-06-29 01:32:00,
2013-06-28 21:42:00,76.0,64.0,29.59,NW,310,0.0,-999.0,66,-99.99,,,-99.99,,2013-06-29 01:42:00,
2013-06-28 21:52:00,76.0,64.0,29.59,NW,310,0.0,-999.0,66,-99.99,,,-99.99,,2013-06-29 01:52:00,